Other Public Products
Issued by NWS Grand Forks, ND

Home | Current Version | Previous Version | Graphics & Text | Print | Product List | Glossary On
Versions: 1 2 3 4 5 6 7 8 9 10 11 12 13 14 15 16 17 18 19 20 21 22 23 24 25 26 27 28 29 30 31 32 33 34 35 36 37 38 39 40 41 42 43 44 45 46 47 48 49 50
734
FPUS83 KFGF 241931
OPUFGF
PRAIRIE TO PINES WEATHER ROUNDUP
NATIONAL WEATHER SERVICE EASTERN NORTH DAKOTA/GRAND FORKS ND
200 PM CDT SAT SEP 24 2016

 **SATELLITE DATA USED TO AUGMENT SKY COVER AT AUTOMATED STATIONS**
 *****  WEATHER ACROSS EASTERN NORTH DAKOTA  *****

CITY           SKY/WX    TMP DP  RH WIND       PRES   REMARKS
GRAND FORKS    CLOUDY    76  66  71 SE21G30   29.82F
GRAND FORKS AF PTSUNNY   74  67  77 S15       29.82F
GRAND CITY NWS NOT AVBL
BUXTON           N/A     78  73  85 SE16        N/A
DEVILS LAKE    CLOUDY    70  66  87 SE12      29.78F
FARGO          MOSUNNY   79  65  62 SE24G32   29.83F
WAHPETON ARPT  CLOUDY    75  63  64 SE20G30   29.86F
$$

 *****  WEATHER ACROSS CENTRAL AND WESTERN NORTH DAKOTA  *****

CITY           SKY/WX    TMP DP  RH WIND       PRES   REMARKS
JAMESTOWN      CLOUDY    74  67  78 S14       29.78F
BISMARCK       MOSUNNY   77  60  55 S21G30    29.71R
MINOT          PTSUNNY   75  65  70 SE13      29.68F
MINOT AFB      CLOUDY    75  64  69 SE15      29.67F
GARRISON         N/A     72  65  78 SE9       29.68F
WILLISTON      LGT RAIN  56  54  93 N18       29.72S FOG
DICKINSON      PTSUNNY   68  57  68 S17       29.67S
HETTINGER      MOSUNNY   66  52  60 S18G28    29.73S
$$

 *****  OTHER OBSERVATIONS NORTHEAST NORTH DAKOTA  *****

CITY           SKY/WX    TMP DP  RH WIND       PRES   REMARKS
WALHALLA       FAIR      66  66 100 S12       29.82F
LANGDON        CLOUDY    68  68 100 SE18      29.81F FOG
CAVALIER       CLOUDY    70  66  88 SE8G16    29.82F
GRAFTON        CLOUDY    73  68  83 SE15      29.83F
CANDO          CLOUDY    73  72  94 SE16G24   29.78F
FORT TOTTEN      N/A     73  68  84 S10       29.95
ROLLA          CLOUDY    68  68 100 SE15      29.78F
RUGBY          FAIR      72  68  88 SE7       29.73F
 ***** THE ABOVE OBSERVATIONS ARE NON NWS ARE NOT QUALITY
        CONTROLLED AND MAY MIS-REPORT RAIN FOR SNOW...
$$

 *****  OTHER OBSERVATIONS SOUTHEAST NORTH DAKOTA *****

CITY           SKY/WX    TMP DP  RH WIND       PRES   REMARKS
COOPERSTOWN    NOT AVBL
VALLEY CITY    CLOUDY    75  73  94 SE16G26   29.81F
OAKES          NOT AVBL
GWINNER        CLOUDY    77  68  73 SE15      29.82F
SHEYENNE NWR     N/A     79  68  69 S18       29.95S
BUFFALO          N/A     76  63  63 SE20        N/A
WYNDMERE         N/A     79  68  69 S12         N/A
 ***** THE ABOVE OBSERVATIONS ARE NON NWS ARE NOT QUALITY
       CONTROLLED AND MAY MIS-REPORT RAIN FOR SNOW...
$$

  *****  WEATHER ACROSS NORTHERN MINNESOTA  *****

CITY           SKY/WX    TMP DP  RH WIND       PRES   REMARKS
FLAG ISLAND    CLOUDY    61  59  94 SE7       29.95F
WARROAD        CLOUDY    68  64  88 SE13      29.94F
ROSEAU         MOSUNNY   66  63  88 SE16      29.90F
HALLOCK        PTSUNNY   75  68  78 S23       29.83F
THF RVR FALLS  MOSUNNY   75  65  70 SE18      29.89F
HALSTAD          N/A     76  66  72 SE21        N/A
FOSSTON        SUNNY     72  61  68 SE14G21   29.91F
BAUDETTE       CLOUDY    64  60  87 SE12      29.98F
WASKISH        CLOUDY    66  61  82 SE10G16   29.98F
CROOKSTON      MOSUNNY   75  66  73 S20G26    29.84F
$$
  *****  WEATHER ACROSS CENTRAL AND WEST MINNESOTA  *****

CITY           SKY/WX    TMP DP  RH WIND       PRES   REMARKS
BEMIDJI        CLOUDY    64  60  87 SE16      29.98F
PARK RAPIDS    CLOUDY    66  60  81 SE15G24   29.98F
WADENA         CLOUDY    64  63  94 SE17      29.96F
DETROIT LAKES  CLOUDY    70  63  78 SE20      29.92F
MOORHEAD       CLOUDY    79  64  61 SE18G26   29.84F
FERGUS FALLS   MOSUNNY   75  64  69 SE21      29.89F
ELBOW LAKE     FAIR      73  65  76 SE20G28   29.89F
MORRIS MN      PTSUNNY   77  66  69 SE17G26   29.88F
STAPLES        CLOUDY    63  63 100 SE8       29.98F FOG
WHEATON        CLOUDY    79  68  69 S18G28    29.88S
$$
  *****  WEATHER ELSEWHERE ACROSS MINNESOTA  *****

CITY           SKY/WX    TMP DP  RH WIND       PRES   REMARKS
DULUTH         CLOUDY    60  59  96 E10       30.10F
INTRNTL FALLS  CLOUDY    66  59  78 SE10      30.03F
ELY            CLOUDY    64  55  72 SE8       30.11F
CLOQUET        CLOUDY    61  55  82 E9        30.09F
BRAINERD       CLOUDY    64  61  90 SE7G16    30.02F FOG
HIBBING        CLOUDY    61  58  90 SE15      30.08F
ALEXANDRIA     CLOUDY    68  65  90 SE21G28   29.96F
SAINT CLOUD    CLOUDY    66  64  93 SE10      30.02F
MINNEAPOLIS    CLOUDY    70  63  78 SE15      30.04F
$$

  *****  WEATHER ACROSS SOUTH DAKOTA  *****

CITY           SKY/WX    TMP DP  RH WIND       PRES   REMARKS
SIOUX FALLS    PTSUNNY   81  70  69 S15       29.86F
BROOKINGS      PTSUNNY   80  68  66 S17G24    29.87F
WATERTOWN      CLOUDY    77  67  71 S21G31    29.85F
HURON          CLOUDY    76  64  66 S8        29.83R
SISSETON         N/A     78  67  68 S16G24    29.84F
ABERDEEN       PTSUNNY   78  65  63 SW12      29.79F
MITCHELL       CLOUDY    77  68  73 S14       29.85F
PIERRE         MOSUNNY   74  47  38 SW16      29.81S
MOBRIDGE       SUNNY     75  52  44 S21G29    29.75R
RAPID CITY     MOSUNNY   65  43  44 W12G18    29.84R
$$

  *****  SOME WEATHER IN NEARBY STATES *****

CITY           SKY/WX    TMP DP  RH WIND       PRES   REMARKS
GLASGOW MT     LGT RAIN  51  49  92 NW14      29.88R FOG
GREAT FALLS MT MOSUNNY   60  34  37 NW18G31   30.10S
CHEYENNE WY    CLOUDY    57  34  41 S12       30.05S
SCOTTSBLUFF NE SUNNY     68  40  35 W9G23     29.98S
OMAHA NE       CLOUDY    74  70  87 CALM      29.91F
DES MOINES IA  MOSUNNY   88  69  53 S18G30    29.98F HX  92
DAVENPORT IA   CLOUDY    75  68  78 E8        30.13F HAZE
CHICAGO IL     MOSUNNY   72  63  73 E8        30.16F
EAU CLAIRE WI  CLOUDY    67  60  78 SE10      30.12F
LA CROSSE WI   CLOUDY    71  63  75 SE14      30.12F
$$

  *****  SOME NATIONAL WEATHER *****

CITY           SKY/WX    TMP DP  RH WIND       PRES   REMARKS
LA GUARDIA NY  MOSUNNY   71  44  37 N14G20    30.08F
RALEIGH NC     MOSUNNY   91  63  39 VRB5      30.03F HX  92
ATLANTA GA     PTSUNNY   88  63  43 N7        30.07F
NEW ORLEANS LA MOSUNNY   93  73  52 N8        30.03F HX 102
OKLAHOMA CITY  PTSUNNY   87  71  58 S20       29.96F HX  93
ALBUQUERQUE NM MOSUNNY   64  25  22 SW6       30.17F
SALT LAKE CITY PTSUNNY   57  45  64 N10       30.26R
LOS ANGELES CA SUNNY     78  49  35 W9        30.01S
BOISE ID       SUNNY     62  38  40 W14G21    30.28F
SEATTLE WA     PTSUNNY   61  48  62 W8        30.40S
$$

*** WEATHER ACROSS MANITOBA...SASKATCHEWAN AND ONTARIO ***
                ***ONTARIO***

CITY           SKY/WX    TMP DP  RH WIND       PRES   REMARKS
GERALDTON      PTSUNNY   64  37  36 SW6       30.24F
THUNDER BAY    PTSUNNY   66  52  59 SE12G18   30.20F
SIOUX LOOKOUT  CLOUDY    55  52  88 SE8       30.11F
TORONTO        SUNNY     64  36  34 SE3       30.22F
BIG TROUT LK   SUNNY     61  39  44 SE8       30.17F
PICKLE LAKE    PTSUNNY   64  39  39 SE13G21   30.18F
DRYDEN         CLOUDY    59  54  82 SE15G24   30.07F
KENORA         CLOUDY    57  57 100 SE16G22   30.01F FOG
$$
                *** MANITOBA***

CITY           SKY/WX    TMP DP  RH WIND       PRES   REMARKS
BRANDON        DRZL/FOG  61  59  94 E14       29.77F VSB 3/4
DAUPHIN        LGT RAIN  57  55  94 E8        29.80F
ISLAND LAKE    CLOUDY    55  43  62 SE13G20   30.03F
PILOT MOUND      N/A     64  63  94 SE15        N/A
THE PAS        LGT RAIN  54  52  94 SE2       29.85F FOG
THOMPSON       LGT RAIN  48  46  93 E3        29.99F
WINNIPEG       CLOUDY    63  61  94 SE15      29.86F
LYNN LAKE      PTSUNNY   50  46  87 E7        29.92F
CHURCHILL      PTSUNNY   61  41  48 S7        30.12R
GILLAM         LGT RAIN  55  41  58 SE8       30.10S
$$
                ***SASKATCHEWAN***

CITY           SKY/WX    TMP DP  RH WIND       PRES   REMARKS
ESTEVAN        DRZL/FOG  57  57 100 N14       29.74F VSB 1
KINDERSLEY     MOSUNNY   55  45  67 N23G33    29.99R
LLOYDMINSTER   MOSUNNY   54  43  66 NW14G23   29.98S
PRINCE ALBERT  CLOUDY    52  50  93 NW6       29.87F
REGINA         LGT RAIN  54  52  94 NW15G22   29.85S
YORKTON        RAIN      54  52  94 NW7       29.82S FOC1F1C2F2C3F3C4F4C5F5C6F6C7F7C8F8C9F9CaFaCbFbCcFcCdFdCe!



USA.gov is the U.S. government's official web portal to all federal, state and local government web resources and services.